www.pogodaiklimat.ru
ПОГОДА в Мадрид аэропорту

Архив погоды в Мадрид аэропорту (Испания)

Время
(UTC), дата
22 10.06
23 10.06
00 11.06
01 11.06
02 11.06
03 11.06
04 11.06
05 11.06
06 11.06
07 11.06
08 11.06
09 11.06
10 11.06
11 11.06
12 11.06
13 11.06
14 11.06
15 11.06
16 11.06
17 11.06
18 11.06
19 11.06
20 11.06
21 11.06
22 11.06
23 11.06
00 12.06
01 12.06
02 12.06
03 12.06
04 12.06
05 12.06
06 12.06
07 12.06
08 12.06
09 12.06
10 12.06
11 12.06
12 12.06
13 12.06
14 12.06
15 12.06
16 12.06
17 12.06
18 12.06
19 12.06
20 12.06
21 12.06
22 12.06
23 12.06
00 13.06
01 13.06
02 13.06
03 13.06
04 13.06
05 13.06
06 13.06
07 13.06
08 13.06
09 13.06
10 13.06
11 13.06
12 13.06
13 13.06
14 13.06
15 13.06
16 13.06
17 13.06
18 13.06
19 13.06
20 13.06
21 13.06
22 13.06
23 13.06
00 14.06
01 14.06
02 14.06
03 14.06
04 14.06
05 14.06
06 14.06
07 14.06
08 14.06
09 14.06
10 14.06
11 14.06
12 14.06
13 14.06
14 14.06
15 14.06
16 14.06
17 14.06
18 14.06
19 14.06
20 14.06
21 14.06
22 14.06
23 14.06
00 15.06
01 15.06
02 15.06
03 15.06
04 15.06
05 15.06
06 15.06
07 15.06
08 15.06
09 15.06
10 15.06
11 15.06
12 15.06
13 15.06
14 15.06
15 15.06
16 15.06
17 15.06
18 15.06
19 15.06
20 15.06
21 15.06
22 15.06
23 15.06
00 16.06
01 16.06
02 16.06
03 16.06
04 16.06
05 16.06
06 16.06
07 16.06
08 16.06
09 16.06
10 16.06
11 16.06
12 16.06
13 16.06
14 16.06
15 16.06
16 16.06
17 16.06
18 16.06
19 16.06
20 16.06
21 16.06
22 16.06
23 16.06
00 17.06
01 17.06
02 17.06
03 17.06
04 17.06
05 17.06
06 17.06
07 17.06
08 17.06
09 17.06
10 17.06
11 17.06
12 17.06
13 17.06
14 17.06
15 17.06
16 17.06
17 17.06
18 17.06
19 17.06
20 17.06
21 17.06
22 17.06
23 17.06
Ветер
(напр.,м/с)
Видим. Явления Облачность Т
(С)
Тd
(С)
f
(%)
Тe
(С)
Тes
(С)
Комфортность P
(гПа)
Po
(гПа)
Тmin
(С)
Tmax
(С)
R
(мм)
R24
(мм)
S
(см)
С 3 30 км 9/9 1000 м
[Cu Sc Ac cuf Cs]
+16.8 +11.5 71 +17 +17 тепло 1014.1 947.7
С 3 30 км 9/9 1000 м
[Cu Sc Ac cuf Cs]
+15.9 +11.4 75 +16 +16 тепло 1014.1 947.5
С 3 30 км 8/4 2000 м
[Cu Sc Ac cuf Cs]
+14.8 +10.4 75 +14 +14 прохладно 1014.3 947.4
С 2 30 км 8/3 2000 м
[Frnb Ac und Cs]
+13.7 +8.0 68 +14 +14 прохладно 1014.6 947.4
С 3 30 км н/о +13.1 +7.4 68 +12 +12 холодно 1014.7 947.3
С 3 30 км 5/0
[Ci sp]
+12.2 +6.6 69 +11 +11 холодно 1014.8 947.3
С 3 30 км 3/0
[Ci sp]
+11.7 +6.3 69 +10 +10 холодно 1015.2 947.5
штиль 0 30 км 3/0
[Ci sp]
+10.5 +6.1 74 +10 +10 холодно 1015.9 947.9
С 2 30 км 3/0
[Ci sp]
+11.6 +6.1 69 +11 +12 прохладно 1016.2 948.4 +10.4 14.1
С 3 30 км 1/0
[Ci sp]
+14.3 +5.7 56 +13 +16 по сезону 1016.0 948.8
С 3 30 км 1/0
[Ci sp]
+16.4 +6.8 53 +16 +22 тепло 1015.9 949.2
С 4 30 км 1/0
[Ci sp]
+18.4 +6.4 45 +19 +27 по сезону 1015.2 949.0
С 4 30 км 1/0
[Ci sp]
+19.8 +6.6 42 +21 +32 комфорт 1014.8 949.0
С 4 30 км 1/0
[Ci sp]
+21.3 +7.3 40 +22 +36 комфорт 1014.0 948.5
С 3 30 км 1/0
[Ci sp]
+22.5 +6.5 36 +23 +40 комфорт 1013.3 948.1
С 2 30 км 1/0
[Ci sp]
+22.8 +6.9 36 +24 +43 комфорт 1012.7 947.6
С 3 30 км 1/0
[Ci sp]
+24.8 +7.9 34 +25 +39 комфорт 1011.8 947.2
С 2 30 км 1/0
[Ci fib]
+25.7 +7.1 31 +26 +39 жарко 1011.0 946.6
С 2 30 км 4/1
[Cu hum Ci fib]
+26.0 +6.8 29 +26 +34 жарко 1010.6 946.3
В 1 30 км 5/5 1500 м
[Cu hum Ci sp]
+25.2 +6.5 30 +25 +28 комфорт 1010.8 946.3
С 1 30 км 6/6
[Cu hum]
+24.4 +6.1 31 +24 +25 комфорт 1011.0 946.3 +26.5
30 км н/о +23.4 +7.2 35 +24 +24 комфорт 1011.5 946.6
С 4 30 км 8/3 1500 м
[Cu Sc Ac As Ci fib]
+20.7 +8.3 45 +22 +22 комфорт 1013.0 947.4
С 5 30 км 9/0
[Ac As Ci fib]
+20.4 +7.2 42 +21 +21 комфорт 1013.9 948.3 0.5
С 4 30 км 4/0
[Ac As Ci fib]
+18.9 +7.8 48 +19 +19 прохладно 1015.3 949.2
С 4 30 км 1/0
[Ac As Ci fib]
+17.1 +8.2 56 +17 +17 прохладно 1015.9 949.4
С 3 30 км ясно +16.0 +8.0 59 +16 +16 по сезону 1016.3 949.5
С 4 30 км 3/0
[Ac As Ci fib]
+15.1 +8.3 64 +14 +14 прохладно 1016.5 949.5
С 2 30 км 4/0
[Ac As Ci fib]
+14.2 +8.2 67 +14 +14 прохладно 1016.5 949.3
С 4 30 км 4/0
[Ac As Ci fib]
+13.5 +8.1 70 +12 +12 прохладно 1016.6 949.2
С 3 30 км 4/0
[Ac As Ci fib]
+12.9 +8.0 72 +12 +12 прохладно 1016.8 949.2
С 3 30 км 5/5 1000 м +12.6 +7.8 73 +11 +11 холодно 1017.3 949.7
С 2 30 км 5/5 1000 м +13.3 +7.6 68 +13 +14 по сезону 1017.1 949.6 +12.5 0.5
С 2 30 км 3/0
[Ac trans Ci fib]
+16.3 +7.3 55 +16 +19 по сезону 1016.2 949.5
С 2 30 км 4/0
[Ac trans Ci fib]
+18.0 +8.2 53 +19 +25 тепло 1016.2 949.9
С 2 30 км 4/0
[Ac As Ci fib]
+20.1 +8.9 48 +22 +30 комфорт 1015.4 949.6
С 3 30 км 1/0
[Ac trans Ci fib]
+21.8 +9.4 45 +23 +37 комфорт 1014.8 949.4
ЮВ 2 30 км 1/1 1000 м
[Cu hum Ci sp]
+23.3 +9.4 41 +25 +43 комфорт 1014.2 949.1
С 3 30 км 8/5 1500 м
[Cu med, cong Ac cuf Ci ing]
+24.4 +8.5 36 +25 +31 комфорт 1013.5 948.7
С 3 30 км 5/5 600 м
[Cu med, cong Ac cuf Ci ing]
+24.7 +8.0 34 +25 +33 комфорт 1012.8 948.1
Ю 6 30 км 5/5 1500 м
[Cu med, cong Ac cuf Ci ing]
+24.0 +7.9 36 +24 +28 комфорт 1013.2 948.3
Ю 3 30 км 5/5 1500 м
[Cu med, cong Ac cuf Ci ing]
+25.0 +8.8 36 +26 +31 жарко 1012.9 948.3
С 3 30 км 3/3 1500 м
[Cu Sc Ac cuf Ci ing]
+24.8 +8.4 35 +25 +31 комфорт 1012.8 948.1
С 3 >70 км 3/3 1500 м
[Cu Sc Ci fib]
+24.9 +8.3 35 +25 +28 комфорт 1012.7 948.1
С 4 30 км 4/4 1500 м
[Cu Sc Ci fib]
+24.4 +6.5 32 +24 +25 комфорт 1013.5 948.7 +25.8
С 5 30 км 5/4 2000 м
[Cu med, cong Ac As]
+23.6 +5.8 32 +24 +24 комфорт 1014.7 949.6
С 4 30 км 5/4
[Cu med, cong Ac As]
+20.8 +4.2 34 +22 +22 комфорт 1016.5 950.7
С 7 30 км 5/4
[Cu med, cong Ac As]
+19.2 +4.5 38 +19 +19 прохладно 1017.7 951.5
С 4 30 км 3/3
[Cu Sc Ac As]
+18.0 +5.7 44 +18 +18 прохладно 1018.8 952.3
С 3 30 км 4/0
[Ac cuf Ci sp]
+16.2 +5.6 49 +16 +16 холодно 1019.8 952.8
С 3 30 км ясно +15.0 +5.9 54 +14 +14 прохладно 1020.3 953.0
С 4 30 км ясно +13.9 +6.0 59 +13 +13 холодно 1020.8 953.3
С 4 30 км 3/0
[Ci sp]
+13.2 +6.1 62 +12 +12 холодно 1020.8 953.1
С 4 30 км 3/0
[Ac trans Ci sp]
+12.3 +6.0 65 +11 +11 холодно 1020.8 952.9
С 3 30 км 3/0
[Ac trans Ci sp]
+11.8 +5.9 67 +10 +10 холодно 1020.7 952.7
штиль 0 30 км 4/0
[Ci fib]
+10.6 +5.6 71 +10 +10 холодно 1021.1 952.7
С 1 30 км 1/0
[Ci fib]
+11.5 +6.6 72 +12 +14 прохладно 1021.0 952.9 +10.5
С 2 30 км 1/0
[Ci fib]
+14.8 +6.4 57 +15 +19 по сезону 1020.4 953.0
С 1 30 км 3/0
[Ci fib]
+18.0 +7.8 51 +20 +28 тепло 1019.7 953.1
Ю 2 30 км 3/0
[Ci sp]
+20.1 +9.1 49 +22 +34 комфорт 1018.6 952.6
ЮВ 2 30 км 1/0
[Ci sp]
+21.8 +9.6 46 +23 +40 комфорт 1018.1 952.5
Ю 3 30 км 1/1 1000 м
[Cu hum Ci fib]
+23.8 +10.5 43 +25 +39 комфорт 1017.2 952.1
Ю 3 30 км 4/1
[Cu hum Ci fib]
+25.7 +10.2 38 +27 +40 жарко 1016.3 951.6
Ю 5 30 км 1/1 2000 м
[Cu hum]
+27.6 +7.3 28 +27 +36 жарко 1015.2 951.0
Ю 6 30 км 1/1 1000 м
[Cu hum Ci fib]
+28.1 +6.7 26 +27 +33 жарко 1014.5 950.4
Ю 5 29 км 1/1 1000 м
[Cu hum]
+28.5 +5.3 23 +27 +33 жарко 1013.8 949.8
Ю 6 30 км 4/1 2000 м
[Cu hum Ci fib]
+29.1 +5.5 22 +28 +31 жарко 1013.1 949.3
Ю 6 30 км 4/0
[Ci sp]
+28.7 +6.8 25 +28 +30 жарко 1012.8 949.0
Ю 6 30 км 4/0
[Ci sp]
+28.5 +4.7 22 +27 +28 жарко 1012.9 949.0 +29.2
Ю 6 30 км 4/0
[Ci sp]
+27.1 +4.8 24 +26 +26 жарко 1013.5 949.2
Ю 6 30 км 4/0
[Ci sp]
+25.7 +3.8 24 +25 +25 комфорт 1014.1 949.5
Ю 5 30 км 9/0
[Cs]
+24.7 +5.6 29 +24 +24 комфорт 1014.8 949.9
З 4 30 км 10/0
[Cs]
+23.6 +5.9 32 +24 +24 комфорт 1015.1 950.0
СВ 2 30 км 9/0
[Cs]
+21.5 +6.3 37 +22 +22 комфорт 1015.6 950.0
С 1 30 км ясно +19.2 +6.5 44 +21 +21 комфорт 1015.7 949.7
С 2 30 км ясно +16.7 +7.1 53 +17 +17 по сезону 1015.9 949.3
С 2 30 км ясно +15.3 +8.0 62 +15 +15 прохладно 1016.3 949.3
С 2 30 км ясно +14.6 +8.2 65 +15 +15 по сезону 1016.4 949.3
С 2 30 км ясно +13.3 +7.9 70 +13 +13 прохладно 1016.9 949.4
штиль 0 30 км ясно +12.3 +7.8 74 +12 +12 холодно 1017.2 949.6
С 3 30 км ясно +13.8 +8.3 69 +13 +14 прохладно 1016.8 949.5 +12.1
СВ 1 30 км ясно +18.0 +8.4 53 +19 +23 тепло 1016.0 949.7
Ю 1 30 км ясно +20.3 +9.1 49 +23 +31 комфорт 1015.4 949.7
Ю 4 30 км ясно +24.7 +7.9 34 +25 +33 комфорт 1014.0 949.2
ЮЗ 7 30 км ясно +26.7 +4.6 24 +26 +31 жарко 1013.3 949.0
ЮЗ 8 30 км ясно +28.6 +4.7 22 +27 +30 жарко 1012.5 948.6
ЮЗ 9 30 км ясно +29.3 +2.9 18 +27 +29 жарко 1011.8 948.1
ЮЗ 9 30 км ясно +30.3 +2.5 17 +28 +30 жарко 1010.8 947.3
ЮЗ 7 30 км ясно +30.8 +1.4 15 +28 +33 жарко 1010.1 946.7
ЮЗ 7 30 км ясно +31.5 +1.5 15 +29 +32 жарко 1009.3 946.1
ЮЗ 7 30 км ясно +31.0 +1.3 15 +28 +31 жарко 1008.9 945.6
ЮЗ 7 30 км 1/0
[Ci fib]
+30.9 +2.8 17 +28 +30 жарко 1008.2 945.0
ЮЗ 8 30 км 1/0
[Ci sp]
+30.2 +2.7 17 +28 +28 жарко 1008.0 944.6 +31.6
ЮЗ 8 30 км 3/0
[Ci fib]
+28.7 +3.2 20 +27 +27 жарко 1008.4 944.8
ЮЗ 7 30 км 1/0
[Ci fib]
+26.9 +8.1 30 +27 +27 жарко 1008.9 945.0
ЮЗ 7 30 км 4/0
[Ac trans Ci fib]
+26.1 +10.1 37 +27 +27 жарко 1009.9 945.8
З 5 30 км 3/0
[Ac trans Ci fib]
+24.8 +11.3 43 +26 +26 жарко 1010.3 945.9
З 4 30 км ясно +23.4 +12.6 51 +26 +26 жарко 1010.7 946.0
З 5 30 км ясно +22.5 +12.5 53 +25 +25 комфорт 1010.6 945.7
З 4 30 км ясно +21.7 +12.1 54 +24 +24 комфорт 1011.1 946.0
ЮЗ 4 30 км ясно +20.4 +11.7 57 +22 +22 комфорт 1011.6 946.1
З 4 30 км ясно +19.6 +10.9 57 +21 +21 комфорт 1011.5 945.9
З 3 30 км ясно +18.8 +10.8 60 +20 +20 тепло 1011.7 945.9
СЗ 1 30 км ясно +17.1 +10.5 65 +18 +18 по сезону 1012.4 946.2
СЗ 1 30 км 1/0
[Ci fib]
+17.2 +10.6 65 +18 +19 тепло 1012.5 946.3 +16.7
СЗ 1 30 км 3/0
[Ac trans Ci fib]
+19.8 +10.3 54 +22 +26 комфорт 1012.2 946.6
СЗ 2 30 км 5/0
[Ac trans Cs]
+21.1 +9.7 48 +22 +28 комфорт 1012.2 946.8
ЮЗ 2 30 км 5/0
[Ac trans Cs]
+22.8 +9.1 42 +24 +34 комфорт 1011.6 946.6
З 3 30 км 6/0
[Ac trans Cs]
+24.6 +4.0 26 +24 +36 комфорт 1011.2 946.5
ЮЗ 3 30 км 5/1
[Cu hum Cs]
+26.6 +3.6 23 +25 +38 комфорт 1010.6 946.4
ЮЗ 3 30 км 3/0
[Ci sp]
+27.2 +1.7 19 +25 +43 комфорт 1010.4 946.3
ЮЗ 4 30 км 3/0
[Ac trans Ci fib]
+28.2 +1.5 18 +26 +38 жарко 1009.5 945.7
Ю 5 30 км 3/0
[Ci fib]
+29.4 +2.0 17 +27 +35 жарко 1008.7 945.1
ЮЗ 5 30 км 4/0
[Ci fib]
+30.4 +2.2 16 +28 +34 жарко 1008.1 944.8
З 4 30 км 3/0
[Ci fib]
+29.6 +2.0 17 +27 +33 жарко 1008.1 944.6
З 6 30 км 1/0
[Ci fib]
+29.1 +2.1 18 +27 +29 жарко 1008.1 944.5
З 6 30 км 1/0
[Ci fib]
+28.2 +2.5 19 +26 +27 жарко 1008.5 944.8 +30.4
З 6 30 км ясно +26.7 +1.0 19 +25 +25 комфорт 1009.1 945.0
З 4 30 км ясно +24.3 0.0 20 +23 +23 комфорт 1010.1 945.4
СЗ 3 30 км ясно +22.2 -1.0 21 +21 +21 комфорт 1011.7 946.4
З 1 30 км ясно +20.0 +0.4 27 +21 +21 комфорт 1012.6 946.9
СВ 2 30 км ясно +18.2 +0.9 31 +19 +19 прохладно 1013.6 947.4
В 1 30 км ясно +17.3 +1.2 34 +18 +18 тепло 1013.5 947.1
В 2 30 км ясно +17.1 +1.4 35 +17 +17 по сезону 1013.7 947.2
СВ 1 30 км ясно +15.1 +1.6 40 +17 +17 по сезону 1014.2 947.2
С 1 30 км ясно +13.4 +3.4 51 +14 +14 по сезону 1014.3 947.0
С 2 30 км ясно +12.3 +3.6 55 +12 +12 прохладно 1014.5 947.0
СЗ 2 30 км 1/0
[Ci fib]
+11.8 +3.6 57 +11 +11 прохладно 1014.6 947.0
СЗ 4 30 км 1/0
[Ci fib]
+13.3 +4.2 54 +12 +13 по сезону 1014.5 947.1 +11.7
СЗ 2 30 км 1/0
[Ci fib]
+16.7 +5.2 47 +17 +20 тепло 1013.8 947.3
С 3 30 км н/о +20.8 +3.8 33 +22 +22 комфорт 1012.8 947.2
ЮВ 2 29 км 1/0
[Ci fib]
+23.6 +5.5 31 +24 +35 комфорт 1012.0 947.1
Ю 3 30 км 1/0
[Ci fib]
+25.5 +3.7 24 +25 +37 комфорт 1011.3 946.8
ЮЗ 3 30 км 1/0
[Ci fib]
+26.4 +3.1 22 +25 +42 комфорт 1011.0 946.7
ЮЗ 3 30 км 1/0
[Ci fib]
+27.7 +2.0 19 +26 +42 жарко 1010.4 946.4
З 3 27 км 1/0
[Ci fib]
+28.5 +2.8 19 +27 +42 жарко 1009.4 945.7
Ю 3 30 км ясно +29.8 +3.7 19 +28 +42 жарко 1008.6 945.1
ЮЗ 5 30 км ясно +30.7 +3.3 18 +28 +36 жарко 1007.7 944.5
ЮЗ 5 30 км ясно +30.9 +3.8 18 +29 +33 жарко 1007.3 944.1
Ю 5 30 км ясно +30.5 +4.6 19 +28 +31 жарко 1006.8 943.6
ЮЗ 6 30 км ясно +29.7 +6.3 23 +28 +29 жарко 1007.1 943.7 +31.0
ЮЗ 7 30 км ясно +28.4 +6.6 25 +27 +28 жарко 1007.7 944.0
ЮЗ 5 30 км ясно +26.9 +6.0 26 +26 +26 жарко 1008.2 944.3
ЮЗ 7 30 км ясно +25.9 +5.5 27 +25 +25 комфорт 1009.0 944.8
ЮЗ 6 30 км ясно +24.8 +6.1 30 +25 +25 комфорт 1009.5 945.0
ЮЗ 5 30 км ясно +23.7 +6.8 34 +24 +24 комфорт 1009.8 945.1
Ю 4 30 км ясно +20.6 +7.0 41 +22 +22 комфорт 1010.9 945.4
штиль 0 30 км ясно +18.7 +7.1 47 +19 +19 тепло 1011.2 945.4
ЮВ 2 30 км ясно +17.8 +6.7 48 +19 +19 тепло 1011.4 945.3
ЮВ 2 30 км ясно +17.0 +6.7 51 +17 +17 тепло 1011.6 945.3
ЮВ 2 30 км ясно +16.2 +7.1 55 +16 +16 тепло 1012.0 945.5
ЮВ 2 30 км ясно +15.5 +7.4 58 +16 +16 тепло 1012.3 945.7
С 2 30 км ясно +15.1 +8.8 66 +15 +16 тепло 1012.6 945.9 +14.7
ЮВ 3 30 км ясно +19.4 +10.7 57 +21 +24 комфорт 1012.1 946.4
ЮВ 3 30 км ясно +21.9 +10.2 47 +24 +29 комфорт 1011.7 946.5
Ю 4 30 км ясно +23.9 +9.8 41 +25 +33 комфорт 1010.8 946.1
Ю 5 30 км ясно +25.7 +8.0 32 +26 +34 жарко 1010.4 946.1
Ю 5 30 км ясно +27.5 +6.1 26 +27 +36 жарко 1009.7 945.8
Ю 5 30 км 1/0
[Ci fib]
+29.1 +6.3 24 +28 +38 жарко 1008.7 945.1
З 5 30 км 1/0
[Ci fib]
+29.5 +5.2 21 +28 +39 жарко 1008.2 944.7
ЮЗ 7 30 км 1/0
[Ci fib]
+30.4 +3.0 17 +28 +33 жарко 1007.6 944.3
З 6 30 км 1/0
[Ci fib]
+30.8 +3.7 18 +29 +34 жарко 1007.0 943.8
З 6 30 км 1/0
[Ci fib]
+31.3 +5.3 19 +29 +33 жарко 1006.4 943.4
ЮЗ 6 30 км 3/0
[Ci fib]
+31.1 +5.5 20 +29 +31 жарко 1005.8 942.8
ЮЗ 6 30 км 1/0
[Ci fib]
+30.5 +5.3 20 +29 +30 жарко 1006.0 942.9 +31.7
З 5 30 км 1/0
[Ci fib]
+28.3 +7.2 26 +28 +28 жарко 1006.8 943.2
З 4 30 км 6/0
[Ci sp]
+26.4 +8.0 31 +26 +26 жарко 1007.5 943.5
З 4 30 км 5/0
[Ci sp]
+25.2 +8.3 34 +26 +26 жарко 1008.3 944.0
СЗ 2 30 км 5/0
[Ci sp]
+23.2 +8.0 38 +24 +24 комфорт 1008.9 944.1
В 1 30 км 8/0
[Cs]
+21.5 +8.1 42 +23 +23 комфорт 1009.1 944.0
Местоположение метеостанции Мадрид аэропорт (Испания): широта 40.45 долгота -3.55 высота над уровнем моря 582 м.
В архиве по умолчанию представлена погода в Мадрид аэропорту за последнюю неделю. Архивные данные за месяц целиком и за предыдущие месяцы, начиная с января 2011 года, Вы можете получить, выбрав интересующий диапазон дат из раскрывающегося списка и нажав кнопку "Найти!".
*Определитесь, кто Вы:
Внимание! Время в таблицах - всемирное. Для получения местного времени необходимо прибавить поправку, которая равна 1 ч.
Некоторые строки с данными для отдельных станций могут быть выделены курсивом. Это означает, что фактические данные отсутствуют по различным причинам, а приведенные значения являются расчетными модельными данными для данного пункта наблюдений.
Смотрите также архив погоды в соседних городах и на ближайших метеорологических станциях:
Партнеры нашего сайта: Для вас в нашей организации авиа экспресс доставка предлагаем всем желающим.      
Пояснения к столбцам:
  • Ветер - указаны скорость ветра в м/с - средняя за 10 мин, порывы в срок и между сроками (в фигурных скобках) и направление, откуда дует ветер: С - северный,
  • СВ - северо-восточный, В - восточный, ЮВ - юго-восточный, Ю - южный, ЮЗ - юго-западный, З - западный, СЗ - северо-западный.
  • Видимость - горизонтальная дальность видимости в метрах или километрах. При видимости от 1 до 10 км при отсутствии осадков обычно наблюдается дымка, при ухудшении видимости до 1 км и менее - туман. В сухую погоду видимость может ухудшаться дымом, пылью или мглою.
  • Явления - указаны атмосферные явления, наблюдавшиеся в срок или в последний час перед сроком; фигурными скобками обозначены явления, наблюдавшиеся между сроками (за 1-3 часа до срока); квадратными скобками обозначены град или гололедные отложения с указанием их диаметра в мм.
  • Облачность - указаны через наклонную черту общая и нижняя облачность в баллах и высота нижней границы облаков в метрах; квадратными скобками обозначены формы облаков: Ci - перистые, Cs - перисто-слоистые, Cc - перисто-кучевые, Ac - высококучевые, As - высокослоистые, Sc - слоисто-кучевые, Ns - слоисто-дождевые, Cu - кучевые, Cb - кучево-дождевые. Подробнее классификацию облаков см. в Атласе облаков (PDF).
  • T - Температура воздуха - температура, измеренная на высоте 2 м над землей.
  • Td - Температура точки росы - температура, при понижении до которой содержащийся в воздухе водяной пар достигнет насыщения.
  • f - Относительная влажность воздуха - влажноcть воздуха, измеренная на высоте 2 м над землей.
  • Te - Эффективная температура - температура, которую ощущает одетый по сезону человек в тени. Характеристика душности погоды. При расчете учитывается влияние влажности воздуха и скорости ветра на теплоощущения человека.
  • Tes - Эффективная температура на солнце - температура, которую ощущает человек, с поправкой на солнечный нагрев. Характеристика знойности погоды. Зависит от высоты солнца над горизонтом, облачности и скорости ветра. Ночью, в пасмурную погоду, а также при ветре 12 м/с и более поправка равна нулю.
  • P - Атмосферное давление - приведенное к уровню моря атмосферное давление.
  • Po - Атмосферное давление - измеренное на уровне метеостанции атмосферное давление.
  • Tmin - Минимальная температура - минимум температуры воздуха на высоте 2 м над землей.
  • Tmax - Максимальная температура - максимум температуры воздуха на высоте 2 м над землей.
  • R - Количество осадков - Количество выпавших осадков за период времени, мм. При наведении курсора мыши на число - период времени, за который выпало указанное количество осадков.
  • R24 - Количество осадков - Количество выпавших осадков за 24 часа, мм.
  • S - Снежный покров - Высота снежного покрова, см. При наведении курсора мыши на число - состояние снежного покрова и степень покрытия местности в баллах.